Location: *
(33.3200°N, 8.3381°W)
Time: 14:02:54
(UTC+00:00)

DMSP B5D2-2 - Pass Details

Date: 09 April 2020
Orbit: 791 x 805 km, 98.3° (Epoch: 04 June)

Event Time Altitude Azimuth Distance (km) Brightness Sun altitude
Rises 20:42:54 0° 11° (N) 3,299 7.5 -21.3°
Reaches altitude 10° 20:45:14 10° 11° (N) 2,368 6.7 -21.7°
Maximum altitude 20:50:28 83° 285° (WNW) 807 4.1 -22.7°
Drops below altitude 10° 20:55:42 10° 197° (SSW) 2,363 6.4 -23.6°
Sets 20:58:01 0° 196° (SSW) 3,292 7.2 -24.1°
